Location: Black River Observatory
(43.1000°N, 82.6200°W)
Time: 05:15:47
(UTC-05:00)

Daily predictions for brighter satellites

Satellite Brightness Start Highest point End
(mag) Time Altitude Azimuth Time Altitude Azimuth Time Altitude Azimuth
Cosmos 2237 Rocket 4.4 04:10:24 18° NE 04:10:24 18° NE 04:11:45 10° NNE
CENTAUR R/B 3.6 04:11:32 40° E 04:11:32 40° E 04:16:39 10° NE
ADEOS II 4.5 04:30:49 10° NNE 04:31:29 14° NNE 04:31:29 14° NNE
Cosmos 2219 Rocket 4.3 04:49:27 16° N 04:49:27 16° N 04:50:35 10° NNE
Cosmos 2333 Rocket 3.9 04:56:53 21° N 04:56:53 21° N 04:58:46 10° NNE
Cosmos 2297 3.9 04:54:46 66° ESE 04:54:46 66° ESE 04:59:43 10° SSE
COSMO-SKYMED 1 4.5 04:53:40 10° SE 04:57:19 27° ENE 04:59:03 21° NNE
Cosmos 2278 Rocket 4.1 05:14:01 17° SSW 05:14:01 17° SSW 05:15:21 10° S
Cosmos 923 Rocket 3.9 05:13:20 82° NNE 05:13:20 82° NNE 05:18:26 10° NNE
Celestis-02/Orion 38 4.5 05:07:56 10° SSE 05:13:06 86° ENE 05:13:27 79° N
SL-16 R/B 2.1 05:17:23 49° SSW 05:19:00 89° WNW 05:24:43 10° NNE
Cosmos 2184 Rocket 4.2 05:20:29 10° S 05:26:34 69° E 05:32:44 10° NNE
Cosmos 292 Rocket 3.8 05:23:40 22° SSW 05:26:47 79° ESE 05:31:37 10° NNE
Cosmos 1812 3.3 05:28:27 53° SSE 05:28:27 53° SSE 05:31:30 10° SSE
Cosmos 1346 Rocket 3.7 05:28:50 29° NNE 05:30:23 46° ENE 05:34:09 10° SSE
Timation 1 Rocket 4.3 05:30:47 55° WNW 05:31:39 60° WSW 05:37:31 10° S
Iridium 2 3.7 05:31:27 10° S 05:35:14 76° E 05:35:36 68° NE
USA 215 3.1 05:30:22 10° NE 05:36:55 83° NW 05:40:47 27° SW
Cosmos 1680 Rocket 3.4 05:38:54 27° SW 05:41:43 66° WNW 05:46:55 10° NNE
SL-08 ROCKET BODY 4.3 05:36:13 10° S 05:42:14 86° W 05:48:10 10° N
Cosmos 2181 Rocket 4.3 05:42:27 39° WNW 05:43:46 43° W 05:49:42 10° SSW
SKYMED 2 3.5 05:40:53 10° SSE 05:45:13 87° ENE 05:47:41 26° NNW
Cosmos 2151 Rocket 3.4 05:41:15 10° SSW 05:45:45 74° W 05:50:15 10° N
Cosmos 2237 Rocket 3.5 05:52:17 22° NNW 05:52:17 22° NNW 05:55:16 10° N
CZ-3 R/B 4.1 05:50:03 10° SSW 05:54:46 14° S 05:57:44 10° SSE
Meteor 1-28 Rocket 3.8 05:51:38 10° SSE 05:55:21 57° ENE 05:59:00 11° N
Cosmos 1633 3.8 05:54:20 10° SSE 05:57:48 43° E 06:01:17 10° NNE
NOAA 6 3.9 05:54:17 10° N 05:59:20 62° WNW 06:04:23 10° SSW
Cosmos 2112 Rocket 4.0 05:55:32 10° SW 06:00:38 53° WNW 06:05:43 10° NNE
CENTAUR R/B 3.0 05:58:46 31° W 06:01:01 41° NW 06:07:37 10° NNE
Cosmos 1610 Rocket 4.4 05:59:44 10° S 06:05:54 84° W 06:12:11 10° N
Tiangong 2 1.0 06:05:56 57° WSW 06:06:28 78° S 06:09:37 10° E
Cosmos 1536 Rocket 3.8 06:06:16 25° NNW 06:08:28 47° W 06:12:41 10° SSW
Gbstr 26 Del rocket 4.3 06:08:43 24° WSW 06:09:18 25° SW 06:12:44 10° S
CSL-04 Rocket 4.0 06:04:31 10° NNE 06:10:06 74° ESE 06:15:36 10° S
Helios 1B rocket 4.4 06:06:55 10° SE 06:10:29 29° ENE 06:14:05 10° N
Cosmos 1238 Rocket 3.9 06:08:45 28° NW 06:10:29 37° W 06:15:31 10° SSW
DNEPR-1 R/B 4.5 06:05:13 10° SW 06:12:32 73° NW 06:18:32 10° NNE
ADEOS II 4.0 06:11:44 10° NNW 06:12:25 12° NNW 06:12:25 12° NNW
Cosmos 1603 3.6 06:10:44 10° SSW 06:16:26 82° WNW 06:22:09 10° NNE
Cosmos 2369 Rocket 2.8 06:13:03 10° NNW 06:18:43 58° ENE 06:24:19 10° SE
Lacrosse 5 rocket 3.3 06:19:05 14° NNW 06:19:41 14° NNW 06:22:05 10° NNE
Cosmos 1025 Rocket 3.6 06:21:52 10° N 06:26:13 61° E 06:30:32 10° SSE
Okean 1 Rocket 3.0 06:24:01 10° SSW 06:28:24 70° W 06:32:48 10° N
PSLV R/B 3.9 06:29:19 22° WSW 06:31:13 47° SSW 06:34:28 10° ESE
COSMO-SKYMED 1 3.5 06:29:40 10° SSW 06:33:25 28° W 06:36:15 15° NW
Cosmos 921 Rocket 4.1 06:31:59 19° WNW 06:33:59 27° W 06:37:45 10° SSW
Lacrosse 5 2.3 06:29:14 10° SSW 06:34:17 66° SE 06:39:21 10° NE
PAYLOAD A 4.4 06:29:12 10° NNE 06:34:33 75° ESE 06:39:58 10° S
Okean 1-7 Rocket 3.5 06:30:59 10° NNW 06:35:23 68° W 06:39:43 10° S
Kosmos-1675 4.4 06:33:30 10° SSW 06:36:17 68° ESE 06:46:53 10° NE
Nadezhda 3 Rocket 4.0 06:30:52 10° NNW 06:37:10 65° W 06:43:26 10° S
Cosmos 2333 Rocket 4.1 06:38:55 11° NW 06:38:55 11° NW 06:40:03 10° NNW
Cosmos 2056 Rocket 3.8 06:37:11 10° NNW 06:42:05 45° WSW 06:46:55 10° S
Cosmos 1943 3.4 06:38:06 10° SSW 06:43:42 77° ESE 06:49:22 10° NNE
Cosmos 192 4.4 06:41:56 10° SW 06:46:45 57° WNW 06:51:36 10° NNE
USA 129 2.9 06:46:51 10° SSW 06:48:31 23° W 06:49:05 20° WNW
Meteor 1-19 Rocket 4.5 06:46:35 10° NNW 06:52:15 51° W 06:57:49 10° SSW
Cosmos 44 Rocket 3.4 06:47:42 10° SW 06:52:53 76° NW 06:58:02 10° NNE
IDEFIX/ARIANE 42P 2.8 06:50:01 10° NNE 06:55:13 75° ESE 07:00:24 10° S
Cosmos 2341 Rocket 4.0 06:49:00 10° SSW 06:55:15 63° W 07:01:28 10° N
Cosmos 1892 Rocket 3.9 06:51:03 10° N 06:55:31 72° E 06:59:59 10° SSE
Meteor 1-11 Rocket 4.0 06:50:19 10° SSW 06:56:01 51° WNW 07:01:39 10° N
Okean 2 3.6 06:52:00 10° N 06:56:13 80° E 07:00:23 10° S
Ariane Rocket 3.6 06:55:04 10° N 06:59:32 32° WNW 07:04:00 10° SW
Meteor 1-29 3.0 06:58:00 10° SSE 07:01:22 82° ENE 07:04:45 10° N
SL-16 R/B 3.6 07:00:24 10° W 07:03:57 17° NW 07:07:31 10° N
ATLAS CENTAUR Rocket 4.4 07:02:01 10° WSW 07:05:41 15° SSW 07:08:11 10° S
Cosmos 1943 Rocket 2.4 07:06:58 10° NNW 07:12:29 71° ENE 07:17:58 10° SSE
SJ-12 4.1 07:10:07 10° N 07:14:10 52° WNW 07:18:13 10° SSW
CZ-4 R/B 1.7 07:10:42 10° N 07:14:30 43° WNW 07:18:13 10° SW
